Location: Krasnoyarskiy Pitomnik
(51.1333°N, 71.6167°E)
Time: 23:34:03
(UTC+00:00)

Daily predictions for brighter satellites

Satellite Brightness Start Highest point End
(mag) Time Altitude Azimuth Time Altitude Azimuth Time Altitude Azimuth
Cosmos 2344 4.3 12:27:04 10° NW 12:35:11 53° NNE 12:46:05 10° ESE
Meteor 1-21 Rocket 4.4 12:31:59 10° N 12:37:51 66° ENE 12:43:44 10° SSE
Cosmos 724 4.3 12:32:21 10° NW 12:38:24 79° NE 12:44:15 10° SE
CZ-2C R/B 3.6 12:33:56 10° NE 12:38:40 27° E 12:43:19 10° SSE
Cosmos 1697 Rocket 2.9 12:37:53 10° SSW 12:43:33 79° WNW 12:49:15 10° NNE
MOS 1-B 4.3 12:40:49 10° SSE 12:46:36 79° ENE 12:52:24 10° NNW
Cosmos 2360 4.4 12:41:05 10° SSW 12:46:48 83° WNW 12:52:33 10° NNE
Cosmos 1328 4.3 12:47:13 10° N 12:51:02 38° ENE 12:54:49 10° SE
Cosmos 1844 Rocket 3.6 12:50:27 10° NNW 12:55:18 29° NE 13:00:07 10° ESE
Cosmos 1758 3.9 12:51:32 10° SSW 12:55:28 62° WNW 12:59:26 10° N
CZ-2D R/B 3.2 12:55:16 10° SSE 12:59:08 87° ENE 13:03:02 10° NNW
Cosmos 1626 Rocket 4.2 12:55:53 10° N 12:59:47 31° ENE 13:03:39 10° SE
Cosmos 1953 2.3 12:56:42 10° S 13:00:43 66° E 13:04:45 10° NNE
Cosmos 1892 4.3 12:59:05 10° NNE 13:01:29 16° ENE 13:03:08 13° E
Cosmos 1821 Rocket 4.0 12:58:33 10° S 13:04:55 77° E 13:11:17 10° NNE
Cosmos 2278 3.7 13:03:15 10° SSW 13:08:53 72° ESE 13:14:35 10° NNE
HJ-1C 4.5 13:10:13 13° ESE 13:12:25 23° ENE 13:15:04 10° NNE
Cosmos 2278 Rocket 4.1 13:09:41 10° N 13:12:37 14° NNE 13:15:29 10° NE
Cosmos 1908 3.3 13:09:19 10° SSW 13:13:11 81° W 13:17:04 10° N
SKYMED 2 3.6 13:11:35 10° NNE 13:15:53 55° E 13:20:09 10° S
Meteor 1-4 Rocket 3.8 13:13:52 10° SE 13:16:23 19° E 13:16:34 19° E
YAOGAN 3 4.5 13:12:59 10° SSE 13:17:20 76° ENE 13:21:43 10° NNW
Cosmos 1934 Rocket 4.0 13:14:01 10° SSE 13:19:56 56° E 13:25:50 10° NNE
CZ-4 R/B 1.8 13:16:37 10° SE 13:20:25 41° ENE 13:24:18 10° N
H-2A R/B 2.6 13:16:31 10° SE 13:20:41 51° ENE 13:24:43 10° N
Cosmos 1174 4.4 13:18:22 10° WSW 13:21:19 39° NW 13:24:11 10° NNE
Meteor 2-10 Rocket 4.4 13:17:08 10° SSE 13:21:53 30° E 13:26:30 10° NNE
SL-16 R/B 2.7 13:17:34 10° S 13:22:43 37° ESE 13:27:54 10° NE
YAOGAN 1 2.8 13:20:58 10° SE 13:25:07 47° ENE 13:29:17 10° N
Cosmos 1455 Rocket 3.0 13:21:32 10° S 13:25:58 85° E 13:30:27 10° NNE
H-2A R/B 3.1 13:23:36 10° NE 13:26:53 22° E 13:30:10 10° SE
Meteor 1-16 Rocket 4.4 13:21:29 10° SSW 13:27:22 83° WNW 13:33:10 10° NNE
ATLAS 5 CENTAUR R/B 1.4 13:24:06 10° SW 13:28:01 87° NW 13:32:09 12° NE
Spot 2 4.0 13:24:31 10° SSE 13:28:38 66° ENE 13:33:00 10° N
Feng Yun 1-1 Rocket 4.2 13:23:36 10° SSE 13:29:09 71° ENE 13:34:53 10° NNW
Cosmos 614 Rocket 4.2 13:24:34 10° NNW 13:29:29 46° ENE 13:33:43 14° SE
Iridium 4 Rocket 3.2 13:26:36 10° N 13:31:09 76° E 13:36:05 10° S
CZ-4 R/B 4.4 13:27:12 10° SSE 13:31:21 86° WSW 13:35:30 10° NNW
USA 215 3.4 13:27:57 13° ENE 13:33:51 74° NNW 13:40:23 10° WSW
NOSS 2-3 (E) 4.2 13:30:51 10° S 13:34:29 33° ESE 13:36:14 24° ENE
CZ-4C R/B 2.8 13:32:18 10° NNE 13:35:41 62° ESE 13:38:57 10° S
Cosmos 2322 Rocket 2.7 13:31:27 10° S 13:36:31 36° ESE 13:41:30 11° NE
Cosmos 371 Rocket 3.3 13:32:04 10° S 13:36:49 57° ESE 13:41:38 10° NNE
NOSS 2 (A) 4.5 13:35:09 10° NW 13:38:02 68° SW 13:39:10 29° SSE
SL-8 R/B 4.1 13:34:18 10° WSW 13:38:55 50° SSE 13:41:19 26° E
USA 229 DEB 4.3 13:33:52 10° S 13:39:16 30° ESE 13:42:18 21° ENE
USA 229 4.3 13:34:00 10° S 13:39:23 29° ESE 13:42:20 21° ENE
SJ-11-01 4.4 13:35:04 10° S 13:39:45 77° WSW 13:44:30 10° NNW
Cosmos 1544 Rocket 3.5 13:35:37 10° S 13:40:03 71° E 13:44:32 10° NNE
Cosmos 2123 Rocket 4.1 13:33:47 10° N 13:40:09 86° W 13:46:28 10° S
BREEZE-M DEB (TANK) 3.5 13:33:16 10° W 13:40:10 62° SSW 13:41:41 27° SE
Cosmos 1844 4.1 13:35:05 10° NNW 13:40:41 46° NE 13:44:04 22° ESE
Cosmos 1408 3.1 13:39:46 10° N 13:43:07 34° ENE 13:43:14 34° ENE
Okean O Rocket 2.3 13:39:08 10° S 13:43:23 56° W 13:47:42 10° NNW
H-2A R/B 3.1 13:38:43 10° S 13:43:58 51° W 13:49:18 10° NNW
Cosmos 2360 Rocket 3.0 13:43:07 10° SSE 13:47:51 28° ESE 13:48:48 27° E
Cosmos 1300 2.5 13:44:08 10° S 13:47:56 85° E 13:51:47 10° NNE
Meteor 1-11 4.3 13:42:52 10° NNW 13:48:29 82° W 13:54:08 10° S
Landsat 5 3.8 13:47:16 10° NNE 13:51:40 76° WNW 13:56:08 10° SSW
MOS 1-B Rocket 4.1 13:46:22 10° NNE 13:53:17 87° ESE 13:59:14 10° SSW
Cosmos 1825 3.6 13:50:32 10° N 13:52:27 22° NE 13:52:27 22° NE
OBJECT-B 3.3 13:57:52 12° NNE 13:57:52 12° NNE 13:58:08 10° NNE
Okean 1-7 Rocket 4.5 13:55:12 10° NNW 13:59:28 51° W 14:03:46 10° S
SL-08 RB Rocket 3.9 13:55:50 10° S 14:00:23 73° WSW 14:05:01 10° NNW
NOSS 8 (F) 4.0 13:57:45 10° SW 14:00:56 69° SE 14:00:56 69° SE
Orbus 7S? 4.4 13:50:57 10° WNW 14:01:01 88° SSW 14:03:11 33° ESE
ATLAS 3B R/B 3.7 13:54:58 10° W 14:01:17 42° NNW 14:07:41 11° NE
NOSS 3-1 (A) 3.7 13:56:36 10° S 14:01:28 37° ESE 14:02:46 33° E
Cosmos 1602 Rocket 3.4 13:57:37 10° N 14:02:01 87° E 14:06:20 10° S
ARGOS 3.8 13:56:46 10° S 14:02:04 57° W 14:07:26 10° NNW
Okean-O 2.6 14:00:04 24° SE 14:02:39 63° ENE 14:07:03 10° N
X-37B 2.5 14:00:49 10° WSW 14:02:58 19° SSW 14:03:05 19° S
In-Cosmos 22 Rocket 3.9 13:57:41 10° N 14:03:03 75° ENE 14:08:21 10° SSE
COSMO-SKYMED 1 3.4 13:59:44 10° N 14:03:59 53° WNW 14:08:12 10° SW
Cosmos 2263 Rocket 4.0 14:01:01 10° NW 14:05:49 30° WSW 14:10:36 10° SSW
MetOp-A 4.0 14:03:35 15° SSE 14:08:01 68° ENE 14:13:22 10° N
Tiangong 3.5 14:07:25 10° SW 14:08:58 15° S 14:08:58 15° S
Cosmos 1980 Rocket 3.5 14:06:30 10° WSW 14:11:48 39° NW 14:17:09 10° NNE
Cosmos 44 4.1 14:07:02 10° S 14:11:32 36° SE 14:11:32 36° SE
Lacrosse 4 Rocket 1.9 14:08:28 10° NW 14:12:44 61° WSW 14:15:07 25° SSE
CSL-04 Debris 4.0 14:10:38 20° SSE 14:14:26 73° ENE 14:19:52 10° NNW
Resurs 01 Rocket 3.9 14:17:16 12° NNE 14:17:16 12° NNE 14:17:54 10° NNE
Ariane Rocket 4.3 14:17:56 24° NE 14:17:56 24° NE 14:20:59 10° N
CZ-2C R/B 3.3 14:13:48 10° N 14:19:18 58° WNW 14:24:43 10° SW
Cosmos 1943 Rocket 4.3 14:17:35 10° N 14:20:03 13° NNE 14:21:10 12° NNE
CENTAUR R/B 3.9 14:14:21 10° NW 14:21:01 36° NNE 14:24:42 25° ENE
NOSS 2-3 (D) 3.4 14:17:39 10° SSW 14:21:44 71° SE 14:22:11 64° E
Cosmos 2173 Rocket 4.3 14:22:33 42° E 14:22:33 42° E 14:28:18 10° NNE
Cosmos 2251 Rocket 3.6 14:17:48 10° NNW 14:23:04 76° WSW 14:26:18 24° SSE
Cosmos 1825 Rocket 3.5 14:21:01 10° N 14:24:59 62° NE 14:24:59 62° NE
NOSS 3-1 (C) 3.1 14:21:29 10° SW 14:26:51 84° SE 14:30:05 30° NE
CSL-04 Rocket 3.6 14:25:01 26° SSE 14:28:18 84° ENE 14:33:54 10° NNW
Cosmos 1605 Rocket 4.2 14:24:50 10° SSW 14:31:07 75° WNW 14:37:32 10° N
Cosmos 1758 Rocket 3.6 14:26:48 10° NNW 14:31:07 73° W 14:32:43 38° S
Cosmos 407 Rocket 3.4 14:27:03 10° NNW 14:32:22 68° ENE 14:33:00 62° ESE
Cosmos 2237 4.1 14:28:32 10° SSW 14:34:14 75° ESE 14:36:57 32° NE
NOSS 2-3 (C) 3.5 14:30:14 10° SW 14:34:23 90° ESE 14:34:42 77° NE
Cosmos 304 Rocket 3.8 14:29:56 10° SSW 14:34:43 79° WNW 14:37:44 23° NNE
Cosmos 2369 Rocket 4.5 14:34:36 10° N 14:35:52 11° NNE 14:37:08 10° NNE
Cosmos 1953 Rocket 4.4 14:32:35 10° N 14:35:38 39° NNE 14:35:38 39° NNE
Cosmos 1892 3.4 14:33:48 10° NNW 14:37:28 51° W 14:38:07 45° SW
Cosmos 1140 Rocket 3.3 14:34:07 10° NNW 14:39:19 73° ENE 14:39:32 72° E
Cosmos 1844 Rocket 2.9 14:34:07 10° NW 14:39:40 68° WSW 14:41:59 35° S
Cosmos 332 Rocket 4.2 14:45:02 10° SW 14:49:53 60° WNW 14:52:58 22° NNE
Meteor 1-4 Rocket 4.1 14:47:56 10° SW 14:50:49 33° W 14:50:49 33° W
Cosmos 1023 Rocket 4.3 14:46:17 10° NNW 14:51:30 89° WSW 14:51:36 87° S
CZ-4 R/B 3.7 14:52:19 10° SSW 14:55:34 23° W 14:58:52 10° NW
Cosmos 2278 Rocket 3.1 14:53:04 10° NNW 14:57:20 36° NNE 14:57:20 36° NNE
H-2A R/B 3.0 14:59:07 10° N 15:03:02 44° WNW 15:07:00 10° SW
SL-16 R/B 3.1 15:01:17 10° SW 15:06:45 47° NW 15:11:24 14° NNE
ATLAS 5 CENTAUR R/B 3.4 15:09:44 10° WNW 15:13:18 25° NNW 15:13:41 25° NNW
Cosmos 1190 Rocket 4.4 15:08:54 10° NNW 15:13:09 59° NW 15:13:09 59° NW
USA 215 3.7 15:15:17 47° NNE 15:16:32 54° N 15:22:51 10° WNW
Cosmos 2322 Rocket 3.0 15:15:04 10° SW 15:20:28 47° NW 15:23:22 26° N
USA 229 DEB 3.6 15:23:08 10° SW 15:29:35 76° NW 15:29:47 76° NNW
USA 229 3.6 15:23:14 10° SW 15:29:41 77° NW 15:29:50 77° NNW
Cosmos 2360 Rocket 2.8 15:25:55 10° SW 15:30:40 54° W 15:30:40 54° W
NOSS 3-2 (C) 4.5 15:42:48 10° NW 15:48:53 46° NNE 15:48:53 46° NNE
Resurs 01 Rocket 4.3 15:54:50 14° NNW 15:54:50 14° NNW 15:55:27 10° NNW
NOSS 3-1 (A) 4.3 15:46:34 10° WSW 15:50:17 41° W 15:50:17 41° W
ATLAS 3B R/B 4.1 15:47:54 10° WNW 15:53:46 29° N 15:54:55 28° NNE
Cosmos 1943 Rocket 4.2 16:00:34 10° NNW 16:02:41 20° N 16:02:41 20° N
NOSS 3-2 (A) 4.4 16:04:10 10° NW 16:09:44 56° NNW 16:09:44 56° NNW
CENTAUR R/B 3.5 16:05:25 10° NW 16:11:52 58° N 16:11:52 58° N
Cosmos 2278 Rocket 4.4 16:37:11 10° NW 16:39:11 21° NW 16:39:11 21° NW
ATLAS 2AS CENTAUR R/B 3.9 21:19:07 39° N 21:19:07 39° N 21:24:14 10° NE
ADEOS II 4.4 21:26:20 10° NNE 21:27:38 18° NNE 21:27:38 18° NNE
ARIANE 5 R/B 4.3 21:53:49 10° NNE 21:57:11 28° ENE 21:57:11 28° ENE
CZ-4C R/B 3.7 22:00:28 36° N 22:02:20 43° NNE 22:09:48 10° E
COSMOS 2455 4.2 22:03:36 31° ESE 22:03:47 31° ESE 22:09:00 10° NE
Nadezhda 1 Rocket 4.4 22:12:31 55° NE 22:12:31 55° NE 22:17:27 10° NNE
SL-16 R/B 3.2 22:12:46 42° E 22:12:46 42° E 22:17:00 10° SE
Resurs 1-4 Rocket 4.4 22:08:01 10° N 22:09:01 15° N 22:09:01 15° N
COSMOS 2406 4.2 22:22:00 40° N 22:22:00 40° N 22:25:45 10° NNE
Cosmos 2322 Rocket 3.0 22:23:47 42° NNE 22:24:59 49° NE 22:30:28 10° SE
Cosmos 2082 Rocket 2.8 22:28:12 54° NNE 22:28:12 54° NNE 22:32:33 10° NNE
CZ-2C R/B 3.6 22:23:28 10° NNE 22:27:58 36° E 22:28:05 36° E
Lacrosse 5 rocket 3.2 22:35:00 30° ENE 22:35:00 30° ENE 22:37:25 10° ENE
Cosmos 2219 Rocket 4.3 22:28:44 10° NNW 22:33:07 22° NE 22:37:29 10° E
Cosmos 2333 Rocket 4.1 22:30:56 10° NNW 22:35:46 27° NE 22:40:35 10° E
Cosmos 2360 Rocket 3.4 22:31:38 16° NNW 22:35:49 39° NE 22:41:08 10° ESE
ALOS 3.8 22:32:37 10° NNE 22:36:51 33° E 22:38:13 28° SE
Cosmos 1833 Rocket 3.8 22:41:38 33° N 22:41:38 33° N 22:45:16 10° NNE
Cosmos 2341 Rocket 4.0 22:41:58 10° N 22:48:20 82° E 22:54:35 10° SSE
Lacrosse 5 2.4 22:50:19 53° SE 22:50:19 53° SE 22:54:10 10° ESE
IRS-P3 4.1 22:48:41 10° NNE 22:53:29 72° N 22:53:29 72° N
CZ-2D R/B 4.4 22:51:42 10° NNW 22:52:17 12° NNW 22:52:17 12° NNW
FENGYUN 3A 4.2 22:52:27 10° NNE 22:57:49 58° E 23:00:47 26° S
USA 229 DEB 4.1 22:59:01 49° SSW 22:59:01 49° SSW 23:05:25 10° SSE
USA 229 4.1 22:59:03 50° SSW 22:59:03 50° SSW 23:05:31 10° SSE
IDEFIX/ARIANE 42P 4.0 22:54:48 10° N 22:57:21 25° NNW 22:57:21 25° NNW
ATLAS CENTAUR R/B 2.5 23:03:48 38° NNE 23:03:48 38° NNE 23:06:48 10° NE
Cosmos 1461 4.4 23:04:07 29° N 23:04:07 29° N 23:06:29 10° NNE
Cosmos 1707 3.6 23:05:44 48° ENE 23:05:44 48° ENE 23:09:02 10° NNE
PAYLOAD A 4.0 23:03:33 10° NNE 23:08:40 84° ESE 23:09:48 56° S
Cosmos 2366 rocket 4.1 23:03:07 10° N 23:09:30 79° E 23:15:52 10° SSE
ATLAS 2AS CENTAUR R/B 4.1 23:06:33 23° NW 23:09:45 31° N 23:16:09 10° ENE
SME Rocket 3.8 23:04:08 10° SSE 23:08:45 53° S 23:08:45 53° S
Meteor 1-21 4.5 23:06:22 18° S 23:10:32 66° E 23:16:07 10° NNE
ADEOS II 4.0 23:06:49 10° N 23:08:33 17° NNW 23:08:33 17° NNW
NOSS 2-2 (C) 4.1 23:11:54 67° W 23:12:31 73° SW 23:19:36 10° SE
Okean 2 3.7 23:13:21 65° ENE 23:13:21 65° ENE 23:17:04 10° NNE
CZ-4B R/B 3.5 23:09:57 10° NNE 23:15:17 84° ESE 23:17:08 42° S
NOSS 3-1 (A) 4.4 23:20:05 41° WSW 23:20:08 41° WSW 23:28:06 10° S
Cosmos 332 Rocket 4.0 23:18:07 14° NNW 23:22:13 69° ENE 23:27:00 10° SSE
Cosmos 2237 4.1 23:20:01 20° NNW 23:24:08 86° WSW 23:29:52 10° SSE
Cosmos 1378 Rocket 3.5 23:23:09 51° S 23:24:14 82° E 23:28:43 10° NNE
Cosmos 1626 4.3 23:21:58 10° SSE 23:25:07 27° E 23:28:17 10° NNE
COSMO-SKYMED 1 4.5 23:23:52 10° SE 23:27:40 31° ENE 23:31:30 10° N
Cosmos 1340 4.3 23:31:13 24° N 23:31:13 24° N 23:32:55 10° N
Cosmos 1674 3.5 23:30:22 12° S 23:33:38 50° E 23:37:17 10° NNE
CZ-2D R/B 4.3 23:30:18 10° N 23:32:56 35° NNW 23:32:56 35° NNW
Spot 4 Rocket 3.9 23:30:55 10° NNE 23:36:04 75° WNW 23:38:45 29° SSW
SL-24 R/B - RUBIN 2 3.5 23:35:00 43° NW 23:36:30 90° WSW 23:40:54 10° SE
ARIANE 5 R/B 2.7 23:32:43 10° N 23:37:28 45° WNW 23:37:30 45° WNW
Cosmos 2181 Rocket 3.9 23:31:28 10° SSW 23:37:38 81° WNW 23:43:57 10° N
In-Cosmos 22 4.1 23:32:35 10° S 23:37:51 78° E 23:43:11 10° NNE
COSMOS 2428 3.9 23:35:22 10° NNW 23:40:46 41° NE 23:46:10 10° ESE
CZ-2C R/B 2.5 23:39:30 10° NNE 23:43:13 80° WNW 23:43:44 63° SW
Cosmos 1975 Rocket 4.5 23:40:28 10° SSE 23:44:37 40° E 23:48:49 10° NNE
SL-4 R/B 2.2 23:46:18 52° WSW 23:46:53 57° SSW 23:50:55 10° SE
Cosmos 1484 Rocket 2.7 23:43:51 10° NNE 23:47:40 86° E 23:50:33 17° SSW
Cosmos 371 Rocket 3.5 23:48:43 42° W 23:49:21 44° WSW 23:53:58 10° S
COSMOS 2455 2.9 23:46:47 34° WSW 23:49:23 64° NW 23:55:25 10° NE
Cosmos 2333 4.4 23:44:29 10° NNW 23:50:16 73° ENE 23:56:03 10° SE
CZ-4C R/B 2.9 23:45:40 16° NW 23:51:34 81° SW 23:59:55 10° SE
SL-8 Rocket 4.2 23:47:08 10° NNW 23:53:01 46° W 23:58:50 10° SSW
METEOR-M 4.0 23:48:49 10° NNE 23:54:11 82° WNW 23:59:31 10° SSW
